Location: Bakov nad Jizerou
(50.4784°N, 14.9394°E)
Time: 23:44:59
(UTC+00:00)

Cosmos 1726 Rocket - Pass Details

Date: 16 June 2021
Orbit: 602 x 630 km, 82.5° (Epoch: 23 July)

Event Time Altitude Azimuth Distance (km) Brightness Sun altitude
Rises 21:49:13 0° 350° (N) 2,935 8.9 -14.5°
Reaches altitude 10° 21:51:29 10° 353° (N) 2,022 7.6 -14.6°
Maximum altitude 21:55:58 76° 78° (ENE) 655 3.6 -14.7°
Enters shadow 21:58:30 25° 161° (SSE) 1,262 4.5 -14.9°
